Weather History for KTBN - February, 2012

Change the Weather History Date:

Thursday, February 16, 2012

  Actual Average Record
Temperature  
Mean Temperature 42 °F -  
Max Temperature 49 °F 46 °F 73 °F (2011)
Min Temperature 31 °F 32 °F 6 °F (2007)
Degree Days  
Heating Degree Days 24    
Moisture  
Dew Point 41 °F    
Average Humidity 94    
Maximum Humidity 100    
Minimum Humidity 48    
Precipitation  
Precipitation 0.00 in - - ()
Sea Level Pressure  
Sea Level Pressure 30.12 in    
Wind  
Wind Speed 5 mph (WNW)    
Max Wind Speed 13 mph    
Max Gust Speed 25 mph    
Visibility 6 miles    
Events Fog , Rain    
Averages and records for this station are not official NWS values.
T = Trace of Precipitation, MM = Missing Value Source: NWS Daily Summary

Daily Weather History Graph

Daily Weather History Graph

Search for Another Location

Airport or City:

Trip Planner

Search our weather history database for the weather conditions in past years. The results will help you decide how hot, cold, wet, or windy it might be!

Date:

Astronomy

Feb. 16, 2012 Rise Set
Actual Time 6:57 AM CST 5:48 PM CST
Civil Twilight 6:30 AM CST 6:15 PM CST
Nautical Twilight 6:00 AM CST 6:45 PM CST
Astronomical Twilight 5:29 AM CST 7:16 PM CST
Moon 2:50 AM CST (2/16) 12:44 PM CST (2/16)
Length of Visible Light 11h 44m
Length of Day
10h 50m
Waning Crescent, 28% of the Moon is Illuminated
Feb 16
Waning Crescent
Feb 21
New
Feb 29
First Quarter
Mar 8
Full
Mar 14
Last Quarter

Hourly Weather History & Observations

Time (CST) Temp. Windchill Dew Point Humidity Pressure Visibility Wind Dir Wind Speed Gust Speed Precip Events Conditions
12:04 AM 42.8 °F 39.3 °F 42.8 °F 100% 29.99 in 10.0 mi WSW 5.8 mph - N/A   Overcast
12:05 AM 42.8 °F 39.3 °F 42.8 °F 100% 30.00 in 10.0 mi WSW 5.8 mph - N/A   Overcast
12:17 AM 42.8 °F 41.1 °F 42.8 °F 100% 29.99 in 10.0 mi West 3.5 mph - N/A   Overcast
12:18 AM 42.8 °F 41.1 °F 42.8 °F 100% 29.99 in 10.0 mi Variable 3.5 mph - N/A   Overcast
12:22 AM 42.8 °F 40.1 °F 42.8 °F 100% 30.00 in 10.0 mi West 4.6 mph - N/A   Overcast
12:30 AM 42.8 °F - 42.8 °F 100% 29.99 in 10.0 mi Calm Calm - N/A   Overcast
12:55 AM 43.2 °F - 43.2 °F 100% 29.98 in 10.0 mi Calm Calm - N/A   Overcast
12:57 AM 42.8 °F - 42.8 °F 100% 29.98 in 10.0 mi Calm Calm - N/A   Overcast
1:02 AM 42.8 °F - 42.8 °F 100% 29.99 in 6.0 mi Calm Calm - N/A   Overcast
1:04 AM 42.8 °F 41.1 °F 42.8 °F 100% 29.99 in 4.0 mi West 3.5 mph - N/A   Overcast
1:07 AM 42.8 °F 41.1 °F 42.8 °F 100% 29.99 in 2.5 mi West 3.5 mph - N/A   Overcast
1:10 AM 42.8 °F 41.1 °F 42.8 °F 100% 30.00 in 1.8 mi West 3.5 mph - N/A   Overcast
1:11 AM 41.0 °F 38.0 °F 41.0 °F 100% 30.00 in 1.5 mi West 4.6 mph - N/A   Overcast
1:12 AM 41.0 °F 38.0 °F 41.0 °F 100% 30.00 in 1.2 mi West 4.6 mph - N/A   Overcast
1:16 AM 41.0 °F 37.1 °F 41.0 °F 100% 30.01 in 1.5 mi West 5.8 mph - N/A   Overcast
1:18 AM 41.0 °F 37.1 °F 41.0 °F 100% 30.01 in 1.8 mi West 5.8 mph - N/A   Overcast
1:20 AM 42.8 °F 38.0 °F 42.8 °F 100% 30.01 in 2.5 mi West 8.1 mph - N/A   Overcast
1:21 AM 42.8 °F 38.6 °F 42.8 °F 100% 30.01 in 3.0 mi West 6.9 mph - N/A   Overcast
1:55 AM 43.5 °F 40.1 °F 43.5 °F 100% 30.01 in 9.0 mi West 5.8 mph - N/A   Overcast
2:06 AM 42.8 °F 39.3 °F 42.8 °F 100% 30.02 in 7.0 mi West 5.8 mph - N/A   Overcast
2:17 AM 44.6 °F 40.2 °F 44.6 °F 100% 30.02 in 3.0 mi WNW 8.1 mph - N/A   Overcast
2:19 AM 44.6 °F 42.2 °F 44.6 °F 100% 30.02 in 2.5 mi Variable 4.6 mph - N/A   Overcast
2:25 AM 44.6 °F 41.4 °F 44.6 °F 100% 30.02 in 1.8 mi West 5.8 mph - N/A   Overcast
2:27 AM 44.6 °F 42.2 °F 44.6 °F 100% 30.03 in 1.5 mi Variable 4.6 mph - N/A   Overcast
2:28 AM 44.6 °F 42.2 °F 44.6 °F 100% 30.02 in 1.5 mi West 4.6 mph - N/A   Overcast
2:31 AM 44.6 °F 40.7 °F 44.6 °F 100% 30.02 in 1.2 mi West 6.9 mph - N/A   Overcast
2:41 AM 44.6 °F 42.2 °F 44.6 °F 100% 30.03 in 1.0 mi West 4.6 mph - N/A   Mist
2:44 AM 44.6 °F 42.2 °F 44.6 °F 100% 30.03 in 1.0 mi West 4.6 mph - N/A   Mist
2:48 AM 44.6 °F 42.2 °F 44.6 °F 100% 30.03 in 0.8 mi West 4.6 mph - N/A   Mist
2:50 AM 44.6 °F 42.2 °F 44.6 °F 100% 30.04 in 0.8 mi West 4.6 mph - N/A   Mist
2:55 AM 43.9 °F 41.3 °F 43.7 °F 99% 30.04 in 0.8 mi Variable 4.6 mph - N/A   Mist
2:57 AM 44.6 °F 42.2 °F 44.6 °F 100% 30.04 in 0.5 mi Variable 4.6 mph - N/A Fog Fog
3:12 AM 44.6 °F 41.4 °F 44.6 °F 100% 30.04 in 0.5 mi West 5.8 mph - N/A Fog Fog
3:15 AM 44.6 °F 41.4 °F 44.6 °F 100% 30.04 in 0.5 mi WNW 5.8 mph - N/A Fog Fog
3:42 AM 44.6 °F 41.4 °F 44.6 °F 100% 30.06 in 0.5 mi WNW 5.8 mph - N/A Fog Light Drizzle
3:53 AM 44.6 °F 40.7 °F 44.6 °F 100% 30.07 in 0.8 mi WNW 6.9 mph - N/A   Light Drizzle
3:55 AM 44.6 °F 40.2 °F 44.4 °F 99% 30.07 in 0.8 mi WNW 8.1 mph - 0.00 in   Light Drizzle
3:56 AM 44.6 °F 39.7 °F 44.6 °F 100% 30.07 in 0.8 mi WNW 9.2 mph - N/A   Light Drizzle
3:57 AM 44.6 °F 39.7 °F 44.6 °F 100% 30.07 in 1.0 mi WNW 9.2 mph - N/A   Light Drizzle
4:00 AM 44.6 °F 40.2 °F 44.6 °F 100% 30.07 in 1.2 mi WNW 8.1 mph - N/A Rain Light Rain
4:01 AM 44.6 °F 39.7 °F 44.6 °F 100% 30.07 in 1.5 mi NW 9.2 mph - N/A Rain Light Rain
4:03 AM 44.6 °F - 44.6 °F 100% - 1.8 mi North - - N/A Rain Light Rain
4:04 AM 44.6 °F - 44.6 °F 100% - 2.0 mi North - - N/A Rain Light Rain
4:07 AM 44.6 °F 40.7 °F 44.6 °F 100% 30.08 in 3.0 mi NW 6.9 mph - N/A   Light Drizzle
4:24 AM 42.8 °F 36.6 °F 42.8 °F 100% 30.09 in 5.0 mi NW 11.5 mph - N/A   Light Drizzle
4:33 AM 42.8 °F 37.0 °F 42.8 °F 100% 30.09 in 7.0 mi NW 10.4 mph - N/A   Light Drizzle
4:41 AM 42.8 °F 37.5 °F 42.8 °F 100% 30.10 in 8.0 mi NW 9.2 mph - N/A   Overcast
4:43 AM 42.8 °F 37.5 °F 42.8 °F 100% 30.10 in 9.0 mi NW 9.2 mph - N/A   Overcast
4:55 AM 43.0 °F 36.4 °F 43.0 °F 100% 30.11 in 10.0 mi NW 12.7 mph 25.3 mph 0.00 in   Overcast
5:15 AM 42.8 °F 36.6 °F 42.8 °F 100% 30.12 in 8.0 mi NW 11.5 mph - N/A   Overcast
5:27 AM 41.0 °F 35.8 °F 41.0 °F 100% 30.12 in 8.0 mi NW 8.1 mph - N/A   Overcast
5:50 AM 41.0 °F 37.1 °F 41.0 °F 100% 30.13 in 7.0 mi Variable 5.8 mph - N/A   Overcast
5:55 AM 41.5 °F 37.8 °F 41.2 °F 99% 30.14 in 8.0 mi WNW 5.8 mph - N/A   Overcast
6:07 AM 41.0 °F 39.0 °F 41.0 °F 100% 30.14 in 7.0 mi West 3.5 mph - N/A   Overcast
6:16 AM 41.0 °F 38.0 °F 41.0 °F 100% 30.14 in 6.0 mi West 4.6 mph - N/A   Overcast
6:35 AM 41.0 °F 37.1 °F 41.0 °F 100% 30.15 in 6.0 mi Variable 5.8 mph - N/A   Overcast
6:43 AM 41.0 °F 37.1 °F 41.0 °F 100% 30.16 in 6.0 mi WNW 5.8 mph - N/A   Overcast
6:51 AM 41.0 °F 36.4 °F 41.0 °F 100% 30.16 in 6.0 mi WNW 6.9 mph - N/A   Overcast
6:55 AM 40.5 °F 36.5 °F 40.3 °F 99% 30.16 in 6.0 mi WNW 5.8 mph - N/A   Overcast
7:13 AM 39.2 °F 33.0 °F 39.2 °F 100% 30.18 in 5.0 mi WNW 9.2 mph - N/A   Overcast
7:26 AM 39.2 °F 33.6 °F 39.2 °F 100% 30.19 in 5.0 mi NW 8.1 mph - N/A   Overcast
7:45 AM 39.2 °F 35.0 °F 39.2 °F 100% 30.22 in 5.0 mi WNW 5.8 mph - N/A   Overcast
7:55 AM 39.7 °F 34.9 °F 39.6 °F 99% 30.22 in 5.0 mi WNW 6.9 mph - N/A   Overcast
8:38 AM 39.2 °F 35.9 °F 39.2 °F 100% 30.24 in 5.0 mi NW 4.6 mph - N/A   Overcast
8:53 AM 39.2 °F 35.0 °F 39.2 °F 100% 30.24 in 5.0 mi WNW 5.8 mph - N/A   Overcast
8:55 AM 40.1 °F 36.1 °F 39.7 °F 99% 30.23 in 5.0 mi West 5.8 mph - N/A   Overcast
9:37 AM 41.0 °F 35.8 °F 39.2 °F 93% 30.25 in 6.0 mi NW 8.1 mph - N/A   Overcast
9:55 AM 40.8 °F 35.0 °F 39.6 °F 95% 30.25 in 6.0 mi WNW 9.2 mph - N/A   Overcast
10:09 AM 41.0 °F 36.4 °F 39.2 °F 93% 30.25 in 4.0 mi WNW 6.9 mph - N/A   Overcast
10:17 AM 41.0 °F 35.8 °F 39.2 °F 93% 30.26 in 6.0 mi NW 8.1 mph - N/A   Overcast
10:21 AM 41.0 °F 36.4 °F 39.2 °F 93% 30.26 in 7.0 mi WNW 6.9 mph - N/A   Overcast
10:29 AM 41.0 °F 35.2 °F 39.2 °F 93% 30.26 in 6.0 mi West 9.2 mph - N/A   Overcast
10:50 AM 41.0 °F 36.4 °F 39.2 °F 93% 30.25 in 7.0 mi NW 6.9 mph - N/A   Overcast
10:55 AM 40.8 °F 35.6 °F 39.0 °F 93% 30.25 in 6.0 mi WNW 8.1 mph - N/A   Overcast
11:55 AM 41.0 °F 37.1 °F 38.8 °F 92% 30.26 in 6.0 mi West 5.8 mph - N/A   Overcast
12:15 PM 41.0 °F 35.8 °F 39.2 °F 93% 30.26 in 7.0 mi WNW 8.1 mph - N/A   Overcast
12:55 PM 44.1 °F 39.5 °F 39.7 °F 85% 30.26 in 8.0 mi West 8.1 mph - N/A   Overcast
1:11 PM 44.6 °F 39.7 °F 39.2 °F 81% 30.26 in 10.0 mi WNW 9.2 mph - N/A   Overcast
1:29 PM 44.6 °F 39.7 °F 37.4 °F 76% 30.24 in 10.0 mi NW 9.2 mph - N/A   Scattered Clouds
1:55 PM 46.8 °F - 37.6 °F 70% 30.23 in 10.0 mi NW 6.9 mph - N/A   Mostly Cloudy
2:04 PM 46.4 °F 41.9 °F 37.4 °F 71% 30.23 in 10.0 mi WNW 9.2 mph - N/A   Scattered Clouds
2:55 PM 48.2 °F - 35.6 °F 62% 30.22 in 10.0 mi WNW 8.1 mph - N/A   Clear
3:55 PM 49.3 °F - 30.4 °F 48% 30.22 in 10.0 mi Variable 5.8 mph - N/A   Clear
4:55 PM 48.0 °F - 30.4 °F 51% 30.21 in 10.0 mi NNW 8.1 mph - N/A   Clear
5:55 PM 44.1 °F - 29.3 °F 56% 30.22 in 10.0 mi Calm Calm - N/A   Clear
6:55 PM 41.9 °F - 29.5 °F 61% 30.25 in 10.0 mi Calm Calm - N/A   Clear
7:55 PM 42.1 °F 40.2 °F 30.0 °F 62% 30.22 in 10.0 mi NNE 3.5 mph - N/A   Clear
8:55 PM 40.3 °F - 30.0 °F 67% 30.22 in 10.0 mi Calm Calm - N/A   Clear
9:55 PM 35.4 °F - 30.4 °F 82% 30.25 in 10.0 mi Calm Calm - N/A   Clear
10:55 PM 34.2 °F - 30.7 °F 87% 30.25 in 10.0 mi Calm Calm - N/A   Partly Cloudy
11:55 PM 31.8 °F - 30.4 °F 94% 30.24 in 10.0 mi Calm Calm - N/A   Mostly Cloudy